Location: Unspecified
(0.0000°N, 0.0000°E)
Time: 17:30:44
(UTC+00:00)

Vanguard 2 Rocket - Visible Passes

Search period start: 30 October 2014 00:00
Search period end: 09 November 2014 00:00
Orbit: 554 x 3335 km, 32.9° (Epoch: 29 October)

Date Brightness Start Highest point End Pass type
(mag) Time Alt. Az. Time Alt. Az. Time Alt. Az.
30 Oct 9.7 05:07:19 10° NNE 05:09:37 11° NE 05:12:14 10° NE visible
30 Oct 8.2 18:55:25 10° SW 19:07:47 47° SSE 19:11:30 30° E visible
30 Oct 9.4 21:13:59 10° WSW 21:17:26 21° W 21:17:26 21° W visible
31 Oct 9.2 17:54:30 10° SW 18:07:57 37° SSE 18:16:07 10° E visible
31 Oct 7.8 20:12:46 10° WSW 20:22:33 64° W 20:22:33 64° W visible
01 Nov 7.8 19:11:36 10° SW 19:24:48 77° SSE 19:27:41 46° ENE visible
01 Nov 9.9 21:32:22 10° W 21:33:37 13° W 21:33:37 13° W visible
02 Nov 8.7 18:10:24 10° SW 18:25:19 57° SSE 18:32:50 15° ENE visible
02 Nov 8.6 20:30:10 10° WSW 20:38:45 38° WNW 20:38:45 38° WNW visible
03 Nov 7.9 19:28:20 10° WSW 19:41:20 67° NW 19:43:54 47° NNE visible
04 Nov 9.1 04:39:46 10° N 04:44:00 18° NE 04:49:47 10° E visible
04 Nov 8.3 18:26:41 10° SW 18:42:13 85° SE 18:49:02 19° ENE visible
04 Nov 9.3 20:48:40 10° W 20:54:58 22° NW 20:54:58 22° NW visible
05 Nov 8.5 19:45:52 10° WSW 19:57:33 41° NW 20:00:06 34° N visible
06 Nov 8.7 04:54:57 10° NNW 05:00:12 34° NE 05:08:37 10° ESE visible
06 Nov 8.6 18:43:33 10° WSW 18:58:40 64° NW 19:05:14 20° NE visible
06 Nov 9.9 21:09:17 10° WNW 21:11:09 12° NW 21:11:09 12° NW visible
07 Nov 8.8 03:59:02 11° N 04:02:00 16° NE 04:06:19 10° E visible
07 Nov 8.8 17:41:35 10° SW 17:59:12 89° NW 18:09:08 10° NE visible
07 Nov 9.2 20:04:30 10° W 20:13:45 25° NW 20:16:16 22° NNW visible
08 Nov 7.7 05:10:53 10° NW 05:16:25 63° NE 05:26:11 10° ESE visible
08 Nov 9.1 19:01:12 10° WSW 19:14:53 41° NW 19:21:22 18° NNE visible
